Radiation Dose measured at exhaust stack monitor of Fukushima Daiichi Nuclear Power Station
Date,Time,Unit 5 6 shared exhaust cylinders,Wind Direction,Wind Velocity(m/s)
2021/11/12,00:00,3.7,west,3.7
2021/11/12,00:10,3.8,west-northwest,4.1
2021/11/12,00:20,3.8,west-northwest,5.6
2021/11/12,00:30,4.2,west-northwest,6.3
2021/11/12,00:40,3.8,west-northwest,5.5
2021/11/12,00:50,3.9,west,5.8
2021/11/12,01:00,3.9,west-northwest,6.4
2021/11/12,01:10,3.9,west-northwest,5.0
2021/11/12,01:20,3.8,west-northwest,5.4
2021/11/12,01:30,3.9,west-northwest,5.6
2021/11/12,01:40,4.0,west-northwest,5.0
2021/11/12,01:50,3.9,northwest,4.7
2021/11/12,02:00,4.0,west-northwest,5.9
2021/11/12,02:10,3.9,west-northwest,4.6
2021/11/12,02:20,3.9,west-northwest,4.7
2021/11/12,02:30,3.9,northwest,5.3
2021/11/12,02:40,4.0,northwest,6.0
2021/11/12,02:50,3.9,northwest,6.5
2021/11/12,03:00,3.9,west-northwest,6.4
2021/11/12,03:10,3.8,northwest,6.4
2021/11/12,03:20,4.0,west-northwest,5.4
2021/11/12,03:30,4.0,west-northwest,4.3
2021/11/12,03:40,3.8,west-northwest,4.5
2021/11/12,03:50,3.9,west-northwest,5.3
2021/11/12,04:00,3.9,west-northwest,6.4
2021/11/12,04:10,3.8,northwest,6.0
2021/11/12,04:20,3.8,northwest,5.2
2021/11/12,04:30,3.8,northwest,5.6
2021/11/12,04:40,4.0,west-northwest,4.6
2021/11/12,04:50,3.8,west,4.7
2021/11/12,05:00,4.0,west-northwest,3.8
2021/11/12,05:10,3.9,west,3.0
2021/11/12,05:20,3.9,west,3.0
2021/11/12,05:30,3.9,west,3.4
2021/11/12,05:40,3.9,west,2.6
2021/11/12,05:50,4.0,west,1.5
2021/11/12,06:00,3.9,west-northwest,2.2
2021/11/12,06:10,4.0,west,1.7
2021/11/12,06:20,3.9,west,1.4
2021/11/12,06:30,3.9,west-northwest,1.5
2021/11/12,06:40,3.9,west-northwest,1.4
2021/11/12,06:50,3.9,west-southwest,1.7
2021/11/12,07:00,3.8,southwest,3.7
2021/11/12,07:10,3.8,southwest,4.1
2021/11/12,07:20,3.9,southwest,3.4
2021/11/12,07:30,4.0,south-southwest,2.3
2021/11/12,07:40,3.8,south-southwest,2.2
2021/11/12,07:50,3.9,south-southwest,2.3
2021/11/12,08:00,3.8,southwest,2.9
2021/11/12,08:10,3.6,west-southwest,2.9
2021/11/12,08:20,3.9,west-southwest,2.6
2021/11/12,08:30,3.8,southwest,2.9
2021/11/12,08:40,4.0,west-southwest,2.5
2021/11/12,08:50,4.0,west-southwest,1.1
2021/11/12,09:00,3.8,-,CALM
2021/11/12,09:10,3.9,east-southeast,1.2
2021/11/12,09:20,3.8,-,CALM
2021/11/12,09:30,3.9,east,1.5
2021/11/12,09:40,4.0,east-southeast,2.0
2021/11/12,09:50,3.9,southeast,2.6
2021/11/12,10:00,4.0,southeast,4.3
2021/11/12,10:10,3.9,south-southeast,4.7
2021/11/12,10:20,3.9,south-southeast,5.1
2021/11/12,10:30,4.0,southeast,4.3
2021/11/12,10:40,3.9,southeast,3.3
2021/11/12,10:50,3.9,south-southeast,4.0
2021/11/12,11:00,3.8,southeast,4.8
2021/11/12,11:10,3.9,southeast,4.7
2021/11/12,11:20,3.9,southeast,4.8
2021/11/12,11:30,3.9,southeast,4.9
2021/11/12,11:40,3.9,southeast,4.2
2021/11/12,11:50,3.9,southeast,3.7
2021/11/12,12:00,3.9,south-southeast,4.4
2021/11/12,12:10,3.9,south-southeast,3.8
2021/11/12,12:20,3.9,southeast,2.6
2021/11/12,12:30,3.9,east-northeast,1.7
2021/11/12,12:40,3.8,south,0.6
2021/11/12,12:50,3.8,north-northeast,0.9
2021/11/12,13:00,3.9,west-northwest,4.5
2021/11/12,13:10,3.9,west-southwest,5.8
2021/11/12,13:20,3.9,west-southwest,8.9
2021/11/12,13:30,3.7,west,7.5
2021/11/12,13:40,3.9,west,7.7
2021/11/12,13:50,3.9,west-northwest,8.8
2021/11/12,14:00,3.8,west-northwest,10.2
2021/11/12,14:10,3.8,west-northwest,10.0
2021/11/12,14:20,3.9,west-northwest,6.4
2021/11/12,14:30,4.0,west-northwest,3.3
2021/11/12,14:40,3.8,west-northwest,5.4
2021/11/12,14:50,3.9,west-northwest,7.4
2021/11/12,15:00,3.8,west-northwest,5.3
2021/11/12,15:10,3.8,west-northwest,7.5
2021/11/12,15:20,4.0,west,10.7
2021/11/12,15:30,3.9,west-northwest,11.6
2021/11/12,15:40,3.9,west,11.3
2021/11/12,15:50,3.9,west-northwest,9.4
2021/11/12,16:00,3.8,west,8.5
2021/11/12,16:10,3.9,west-northwest,8.4
2021/11/12,16:20,3.9,west,8.2
2021/11/12,16:30,3.9,west-northwest,7.5
2021/11/12,16:40,3.8,west-northwest,8.6
2021/11/12,16:50,4.0,west-northwest,6.4
2021/11/12,17:00,3.6,northwest,5.6
2021/11/12,17:10,3.7,northwest,5.6
2021/11/12,17:20,3.8,north-northwest,5.2
2021/11/12,17:30,3.9,north-northwest,5.9
2021/11/12,17:40,3.9,north-northwest,6.6
2021/11/12,17:50,3.9,north-northwest,6.7
2021/11/12,18:00,4.0,north-northwest,5.5
2021/11/12,18:10,3.8,northwest,6.0
2021/11/12,18:20,4.0,northwest,6.5
2021/11/12,18:30,3.9,northwest,7.9
2021/11/12,18:40,3.8,northwest,7.7
2021/11/12,18:50,3.8,northwest,8.9
2021/11/12,19:00,3.9,northwest,8.4
2021/11/12,19:10,4.0,west-northwest,9.9
2021/11/12,19:20,4.0,west-northwest,11.4
2021/11/12,19:30,4.0,west-northwest,11.9
2021/11/12,19:40,3.7,west-northwest,12.1
2021/11/12,19:50,3.9,west-northwest,13.8
2021/11/12,20:00,4.0,west-northwest,13.5
2021/11/12,20:10,3.9,west-northwest,12.1
2021/11/12,20:20,3.9,west-northwest,11.9
2021/11/12,20:30,4.0,west-northwest,11.6
2021/11/12,20:40,3.8,west-northwest,12.1
2021/11/12,20:50,4.0,west-northwest,13.8
2021/11/12,21:00,3.9,west,10.7
2021/11/12,21:10,3.9,west-northwest,11.4
2021/11/12,21:20,3.8,west-northwest,12.4
2021/11/12,21:30,3.9,west-northwest,11.8
2021/11/12,21:40,3.9,west-northwest,10.2
2021/11/12,21:50,3.8,west-northwest,9.4
2021/11/12,22:00,4.0,west-northwest,10.4
2021/11/12,22:10,3.9,west-northwest,8.6
2021/11/12,22:20,3.9,west-northwest,9.6
2021/11/12,22:30,3.7,west-northwest,8.8
2021/11/12,22:40,3.8,west-northwest,9.6
2021/11/12,22:50,3.9,northwest,8.8
2021/11/12,23:00,3.9,northwest,6.9
2021/11/12,23:10,3.9,northwest,5.6
2021/11/12,23:20,3.9,west-northwest,2.6
2021/11/12,23:30,3.9,-,CALM
2021/11/12,23:40,4.0,north-northeast,1.2
2021/11/12,23:50,3.7,northeast,2.3
